Weather History for Bridgeport, CT

Change the Weather History Date:

Thursday, March 7, 2013

  Actual Average Record
Temperature  
Mean Temperature 37 °F 37 °F  
Max Temperature 40 °F 44 °F 67 °F (1987)
Min Temperature 34 °F 29 °F 10 °F (1990)
Degree Days  
Heating Degree Days 28 28  
Month to date heating degree days 190 204  
Since 1 July heating degree days 3813 4091  
Cooling Degree Days 0 0  
Month to date cooling degree days 0 0  
Year to date cooling degree days 0 0  
Moisture  
Dew Point 29 °F    
Average Humidity 78    
Maximum Humidity 96    
Minimum Humidity 59    
Precipitation  
Precipitation 0.09 in 0.14 in 1.94 in (1967)
Month to date precipitation 0.09 0.87  
Year to date precipitation 7.11 6.76  
Snow  
Snow T in 0.20 in 1.20 in (1969)
Month to date snowfall T 1.7  
Since 1 July snowfall 51.3 23.3  
Snow Depth 0.00 in    
Sea Level Pressure  
Sea Level Pressure 29.99 in    
Wind  
Wind Speed 18 mph (North)    
Max Wind Speed 30 mph    
Max Gust Speed 41 mph    
Visibility 7 miles    
Events Rain , Snow    
T = Trace of Precipitation, MM = Missing Value Source: NWS Daily Summary

Daily Weather History Graph

Daily Weather History Graph

Search for Another Location

Airport:

Trip Planner

Search our weather history database for the weather conditions in past years. The results will help you decide how hot, cold, wet, or windy it might be!

Date:

Astronomy

Mar. 07, 2013 Rise Set
Actual Time 6:16 AM EST 5:50 PM EST
Civil Twilight 5:49 AM EST 6:18 PM EST
Nautical Twilight 5:17 AM EST 6:49 PM EST
Astronomical Twilight 4:45 AM EST 7:22 PM EST
Moon 3:16 AM EST (3/7) 1:33 PM EST (3/7)
Length of Visible Light 12h 28m
Length of Day
11h 33m
Waning Crescent, 20% of the Moon is Illuminated
Mar 7
Waning Crescent
Mar 11
New
Mar 19
First Quarter
Mar 27
Full
Apr 3
Last Quarter

Hourly Weather History & Observations

Time (EST) Temp. Windchill Dew Point Humidity Pressure Visibility Wind Dir Wind Speed Gust Speed Precip Events Conditions
12:52 AM 37.4 °F 26.4 °F 30.2 °F 75% 29.92 in 10.0 mi NNE 23.0 mph 34.5 mph N/A   Overcast
1:52 AM 36.0 °F 24.4 °F 30.0 °F 79% 29.92 in 9.0 mi NNE 23.0 mph 31.1 mph 0.00 in   Overcast
2:52 AM 36.0 °F 25.6 °F 30.0 °F 79% 29.91 in 10.0 mi North 18.4 mph 28.8 mph 0.00 in   Overcast
3:26 AM 35.6 °F 25.2 °F 28.4 °F 75% 29.93 in 10.0 mi NNE 18.4 mph 27.6 mph N/A   Overcast
3:52 AM 36.0 °F 25.3 °F 28.9 °F 76% 29.93 in 10.0 mi NNE 19.6 mph 31.1 mph N/A   Overcast
4:04 AM 35.6 °F 24.8 °F 28.4 °F 75% 29.93 in 10.0 mi NNE 19.6 mph 28.8 mph N/A   Overcast
4:52 AM 36.0 °F 24.7 °F 28.0 °F 73% 29.94 in 10.0 mi North 21.9 mph 29.9 mph N/A   Overcast
5:52 AM 36.0 °F 24.4 °F 27.0 °F 70% 29.95 in 10.0 mi North 23.0 mph 32.2 mph N/A   Overcast
6:52 AM 35.1 °F 22.5 °F 27.0 °F 72% 29.96 in 10.0 mi North 26.5 mph 35.7 mph 0.00 in   Overcast
7:52 AM 35.6 °F 23.4 °F 26.6 °F 70% 29.98 in 10.0 mi North 25.3 mph 33.4 mph N/A   Overcast
8:52 AM 35.1 °F 23.3 °F 27.0 °F 72% 29.97 in 8.0 mi North 23.0 mph 35.7 mph 0.00 in Snow Light Snow
9:52 AM 37.4 °F 26.6 °F 26.6 °F 65% 29.96 in 10.0 mi North 21.9 mph 33.4 mph N/A   Overcast
10:41 AM 37.4 °F 26.9 °F 26.6 °F 65% 29.99 in 10.0 mi North 20.7 mph 29.9 mph N/A   Overcast
10:52 AM 37.9 °F 28.9 °F 27.0 °F 65% 29.99 in 10.0 mi North 16.1 mph 28.8 mph N/A   Overcast
11:25 AM 37.4 °F 27.2 °F 26.6 °F 65% 29.99 in 10.0 mi North 19.6 mph 34.5 mph N/A   Overcast
11:52 AM 39.0 °F 28.0 °F 27.0 °F 62% 29.99 in 10.0 mi North 25.3 mph 33.4 mph N/A   Overcast
12:52 PM 39.9 °F 29.7 °F 27.0 °F 60% 29.98 in 10.0 mi North 23.0 mph 32.2 mph N/A   Overcast
1:52 PM 39.0 °F 28.8 °F 28.0 °F 65% 29.99 in 10.0 mi North 21.9 mph 31.1 mph N/A   Overcast
2:52 PM 39.0 °F 29.9 °F 28.9 °F 67% 30.00 in 10.0 mi North 17.3 mph 32.2 mph 0.00 in   Overcast
3:52 PM 37.9 °F 28.5 °F 30.0 °F 73% 30.01 in 8.0 mi North 17.3 mph 24.2 mph 0.00 in Snow Light Snow
4:37 PM 37.4 °F 30.3 °F 30.2 °F 75% 30.02 in 9.0 mi North 10.4 mph 20.7 mph 0.01 in Rain Light Rain
4:52 PM 37.0 °F 29.3 °F 30.9 °F 79% 30.02 in 9.0 mi North 11.5 mph 20.7 mph 0.02 in Rain Light Rain
5:52 PM 36.0 °F 29.0 °F 32.0 °F 86% 30.04 in 9.0 mi NNW 9.2 mph - 0.02 in Rain Light Rain
6:28 PM 35.6 °F 29.2 °F 32.0 °F 87% 30.04 in 5.0 mi NW 8.1 mph - 0.02 in Snow Light Snow
6:42 PM 35.6 °F 29.2 °F 32.0 °F 87% 30.04 in 6.0 mi NNW 8.1 mph - 0.02 in Snow Light Snow
6:52 PM 35.1 °F 26.9 °F 32.0 °F 89% 30.05 in 4.0 mi NNW 11.5 mph - 0.03 in Snow Light Snow
7:52 PM 34.0 °F 25.5 °F 32.0 °F 92% 30.04 in 3.0 mi NNW 11.5 mph - 0.01 in Snow Light Snow
8:13 PM 33.8 °F 25.8 °F 30.2 °F 87% 30.03 in 2.5 mi NNW 10.4 mph - 0.01 in Snow Light Snow
8:30 PM 33.8 °F 25.3 °F 30.2 °F 87% 30.04 in 3.0 mi NNW 11.5 mph - 0.02 in Snow Light Snow
8:45 PM 33.8 °F 25.8 °F 30.2 °F 87% 30.04 in 2.5 mi NNW 10.4 mph - 0.02 in Snow Light Snow
8:52 PM 34.0 °F 26.6 °F 30.9 °F 89% 30.03 in 2.0 mi North 9.2 mph - 0.02 in Snow Light Snow
9:52 PM 34.0 °F 26.6 °F 30.9 °F 89% 30.01 in 2.5 mi NNW 9.2 mph - 0.01 in Snow Light Snow
10:24 PM 33.8 °F 26.4 °F 30.2 °F 87% 30.01 in 3.0 mi NNW 9.2 mph - 0.01 in Snow Light Snow
10:32 PM 33.8 °F 26.4 °F 32.0 °F 93% 30.01 in 2.0 mi NNW 9.2 mph - 0.01 in Snow Light Snow
10:52 PM 34.0 °F 26.0 °F 32.0 °F 92% 30.01 in 2.0 mi NNW 10.4 mph - 0.02 in Snow Light Snow
11:52 PM 34.0 °F 26.0 °F 32.0 °F 92% 30.01 in 2.0 mi NNW 10.4 mph - 0.02 in Snow Light Snow